RH
4 4 4 4 4 4 4 3 3 4 4 4 5 6 9 12 17 26 33 39 44 44 49 61 69 73 73 71 72 71 62 62 83 103 105 100 101 101 101 101 99 98 101 100 98 99 101 97 93 96 98 96 97 98 100 101 99 100 100 97 100 101 96 92 83 81 95 103 99 100 106 105 96 95
4 4 4 4 4 4 4 4 3 4 4 4 5 6 7 11 15 22 29 35 41 43 48 60 70 73 73 71 73 75 68 58 65 90 106 101 100 104 100 100 101 95 99 106 100 96 101 98 94 97 98 97 97 98 100 101 99 100 99 100 103 102 98 95 83 73 78 91 98 96 95 105 106 99
4 4 4 4 4 4 4 4 3 3 4 4 4 6 7 9 14 20 26 31 38 43 49 59 70 74 73 70 72 75 73 61 54 73 100 103 99 104 102 100 101 91 94 110 104 93 98 100 99 100 98 96 97 98 100 101 100 99 99 102 103 98 97 102 100 86 67 68 90 92 79 93 108 101
4 4 4 4 4 4 3 4 4 3 4 4 4 5 6 8 13 18 22 29 37 42 49 60 70 76 75 70 69 72 73 66 52 59 90 105 100 101 102 101 102 90 86 102 105 95 98 104 103 101 98 96 97 99 101 100 97 96 97 101 102 98 99 104 104 96 76 65 83 94 79 83 102 100
4 4 3 4 4 4 4 3 4 4 3 4 4 4 6 7 11 16 20 27 36 41 49 62 73 78 78 74 69 67 68 68 54 46 69 98 105 102 100 101 104 96 87 94 104 101 99 104 103 98 97 98 98 100 101 99 98 96 97 101 100 98 102 107 101 91 83 79 90 99 82 72 93 106
3 3 3 4 3 4 4 3 4 4 3 4 4 4 6 7 9 15 19 27 35 39 48 66 78 81 81 78 74 69 66 66 59 43 44 70 94 103 103 101 101 100 94 92 101 105 101 101 101 96 95 98 100 100 100 100 100 99 99 100 99 99 103 107 104 95 90 90 99 103 82 65 84 106
3 4 3 4 4 3 4 3 4 4 4 4 4 3 5 6 8 13 18 25 33 37 45 67 83 86 84 82 80 76 70 66 62 48 34 39 58 77 91 101 102 99 96 93 97 106 105 100 101 98 95 97 100 100 99 100 101 99 101 101 98 101 104 103 102 97 87 85 96 101 86 73 77 82
3 3 3 4 4 4 4 4 3 4 4 4 4 4 4 5 7 12 16 23 32 35 42 65 87 90 87 85 85 82 76 70 63 52 38 30 34 43 57 81 101 102 98 94 95 104 107 101 100 101 98 97 99 100 99 100 101 99 99 101 99 99 102 106 105 96 83 78 90 98 88 78 75 71
3 3 3 3 4 4 4 4 4 4 4 4 4 4 4 5 6 10 15 21 29 35 40 61 87 94 90 88 88 86 80 75 67 54 41 33 32 34 36 54 89 106 102 95 95 102 105 101 100 103 104 100 95 97 101 101 101 101 97 97 101 101 102 107 107 101 95 88 92 102 94 75 68 72
3 3 3 3 4 4 4 4 4 4 4 4 4 4 3 5 5 7 13 19 27 34 39 57 82 95 94 90 90 92 88 81 72 58 45 36 35 40 40 45 73 102 106 99 97 99 100 101 104 106 106 100 86 85 97 102 100 102 100 98 101 104 104 107 108 110 108 94 85 96 101 81 61 60
3 3 3 3 4 4 4 4 4 4 4 3 4 5 4 4 4 6 11 17 25 33 39 54 76 92 98 95 92 95 95 89 79 62 49 42 39 45 52 54 68 90 104 105 99 94 95 102 107 105 106 105 92 81 85 94 99 100 100 99 100 102 104 105 108 112 106 88 77 86 98 93 78 69
3 3 3 3 3 4 4 4 4 4 5 4 4 5 4 4 4 5 8 15 23 32 40 52 70 88 99 98 93 95 98 96 87 70 54 48 45 49 63 79 88 95 103 109 103 95 96 102 105 104 105 108 105 93 82 83 92 96 97 100 101 103 105 103 105 107 97 80 78 88 97 100 95 90
3 3 3 3 3 4 4 4 5 4 4 4 4 4 4 4 4 4 6 11 19 29 39 50 66 84 97 97 92 95 101 102 97 80 62 53 50 52 64 86 102 106 106 106 103 100 100 101 102 104 105 104 106 103 91 84 89 92 95 100 102 104 108 105 102 102 95 84 85 96 102 99 97 98
3 3 3 3 3 4 4 4 5 4 5 5 4 4 4 4 4 4 4 7 14 24 37 49 62 79 94 97 94 96 101 106 104 89 70 60 56 54 60 73 89 100 104 104 102 102 101 99 101 104 104 104 103 98 93 93 95 96 96 101 104 106 107 105 100 99 99 93 91 96 98 95 97 101
3 3 3 3 3 3 4 4 5 5 5 5 5 5 5 4 4 5 4 5 9 19 31 46 60 75 90 95 95 97 100 105 107 97 80 69 64 59 58 65 75 87 97 103 104 104 103 102 105 105 103 103 99 93 93 98 100 99 98 102 107 107 104 100 97 98 102 99 95 95 93 93 98 100
3 3 3 3 3 3 4 4 5 6 5 5 5 5 5 5 5 5 5 5 6 13 24 41 59 72 85 93 94 96 102 104 106 104 91 77 72 67 62 64 70 77 85 93 98 104 107 105 103 104 104 102 98 95 98 101 101 100 99 101 104 105 102 99 96 99 103 101 100 101 99 99 102 99
3 3 3 3 3 3 4 4 5 5 5 5 6 5 5 5 5 5 5 5 5 10 18 35 56 69 80 90 92 94 102 105 104 106 101 88 80 77 72 71 71 73 78 85 90 96 102 105 106 109 108 102 99 99 100 100 101 102 100 100 102 103 103 101 101 102 102 101 105 107 107 107 104 100
2 3 3 3 4 4 3 4 4 5 5 5 5 6 5 5 5 5 5 5 5 9 16 30 50 64 74 84 88 89 97 104 103 103 106 101 91 85 82 78 76 75 78 85 90 92 96 104 110 109 104 99 99 100 100 100 101 101 100 100 101 102 102 101 101 102 101 101 106 107 106 107 104 103
2 3 3 3 4 4 3 4 4 4 5 5 5 6 5 5 6 5 5 6 5 6 12 23 40 58 71 81 86 86 90 101 104 101 104 108 102 94 90 86 85 86 87 91 97 98 96 99 102 102 100 100 101 100 100 100 100 100 100 100 100 100 101 101 100 101 101 100 103 103 101 102 104 105
2 2 3 3 3 4 4 4 4 4 4 4 5 6 6 5 6 5 5 6 5 5 8 14 28 49 69 81 87 87 87 95 103 101 100 106 108 104 100 95 94 97 97 99 104 104 98 96 98 100 100 101 101 101 101 101 101 101 100 99 100 99 99 100 99 100 101 100 100 101 100 101 104 102
2 2 2 3 3 4 4 4 4 4 3 4 4 5 6 5 5 6 5 5 6 5 6 9 17 34 57 77 88 90 86 89 99 102 99 102 108 109 108 104 102 102 102 103 106 106 103 100 100 102 102 100 100 100 100 100 100 101 100 99 101 100 99 101 100 100 100 100 101 101 100 101 103 102
2 2 2 3 3 3 4 4 4 4 4 4 4 5 6 6 5 6 6 6 6 5 5 8 12 21 40 62 80 91 90 88 95 102 100 100 104 108 110 109 106 105 105 105 104 105 106 105 104 104 103 102 101 100 100 101 101 101 101 99 100 101 101 101 101 101 101 102 103 103 101 102 103 103
2 2 2 2 3 3 3 4 4 4 4 4 5 5 5 6 6 6 6 6 6 6 6 7 10 15 27 46 67 86 94 93 94 100 102 101 101 104 108 109 108 106 106 106 106 104 106 107 106 106 106 104 103 100 100 101 101 100 102 100 98 99 100 101 101 101 101 101 102 102 102 102 103 101
2 2 2 2 3 3 3 4 4 4 5 4 4 5 5 5 6 6 6 6 6 6 6 6 8 12 18 32 53 75 92 98 97 97 101 103 101 101 105 107 107 107 106 106 107 107 107 107 106 107 108 108 107 106 104 103 102 100 101 101 99 99 101 102 101 100 101 102 101 101 103 103 103 102
2 2 2 2 3 3 3 3 4 4 5 4 4 5 5 5 6 6 6 6 6 6 6 6 6 8 12 21 35 56 80 98 100 98 100 103 103 102 102 104 106 107 105 104 105 105 107 108 107 107 108 107 106 107 106 105 106 105 102 100 100 101 102 101 101 101 101 101 100 101 103 103 103 102
2 2 2 2 3 3 2 3 4 4 5 5 5 5 5 5 6 6 6 6 6 6 7 6 6 6 7 12 20 35 59 84 101 105 102 101 103 102 100 101 104 105 105 105 105 103 105 108 109 108 107 105 104 103 102 103 107 109 107 103 102 104 103 100 101 104 102 101 102 103 103 100 96 94
2 2 3 2 2 3 3 3 3 4 4 5 5 5 5 5 5 6 6 7 7 6 6 7 7 6 6 8 12 22 40 65 92 107 107 103 105 104 101 101 102 103 104 105 104 104 106 108 107 105 103 104 105 103 101 104 108 109 106 105 107 109 107 103 103 105 103 100 101 102 101 99 94 90
2 2 2 2 2 3 3 3 3 3 4 5 5 5 5 5 5 6 6 7 7 7 7 6 6 7 6 6 8 14 25 43 68 94 107 107 105 102 102 103 102 102 104 103 103 105 107 105 104 103 101 101 104 103 101 102 104 103 102 102 103 103 104 103 101 102 102 101 100 100 100 100 99 97
2 2 2 2 3 3 3 3 3 3 3 4 5 5 5 5 5 5 6 7 7 7 7 7 6 7 7 6 6 8 13 23 40 66 92 104 105 104 104 103 102 102 104 103 102 103 103 102 103 104 102 102 104 105 103 101 101 102 102 102 101 100 101 101 100 100 101 100 100 99 100 100 101 101
2 2 3 3 3 3 3 3 3 3 3 4 4 5 5 5 5 5 5 6 7 7 7 7 7 7 7 7 7 6 8 12 19 36 61 85 101 106 104 103 103 102 102 102 102 101 102 103 103 105 105 104 105 105 102 100 102 102 101 100 101 101 100 100 100 101 101 100 100 100 100 100 101 101
2 2 3 3 3 3 3 3 3 3 3 4 4 5 5 5 6 6 5 6 6 7 7 7 7 7 7 7 7 7 7 7 9 15 29 51 77 95 104 106 104 101 101 102 102 102 104 103 101 103 104 103 102 103 103 103 103 102 101 101 101 101 100 100 100 100 100 100 100 100 100 100 100 100
2 2 2 3 3 3 3 3 3 3 3 4 4 4 5 5 6 6 6 6 6 6 7 7 7 7 7 7 7 8 7 7 7 8 12 22 40 63 86 101 104 103 103 102 100 103 105 103 101 103 102 100 102 104 104 104 104 102 101 100 100 100 100 100 100 100 100 101 100 100 100 100 100 101
2 2 2 3 3 3 3 3 3 3 3 4 4 4 4 5 6 6 6 6 6 6 6 7 7 7 7 7 7 7 7 7 7 7 7 10 16 28 51 75 93 102 105 102 102 104 103 101 103 104 101 101 103 103 102 102 103 103 103 104 104 103 102 100 101 101 100 100 100 100 100 100 101 101
2 2 2 3 2 3 3 3 3 3 3 3 4 4 4 4 5 6 6 6 6 6 6 7 7 7 7 7 7 7 7 7 8 7 7 7 8 10 21 39 61 80 91 99 105 106 102 101 103 102 99 100 100 100 101 102 102 102 103 103 104 104 103 102 101 102 101 101 100 101 101 100 101 101
2 2 2 3 2 3 3 3 3 3 3 4 3 3 4 4 4 5 6 6 7 6 6 6 7 7 8 7 7 7 7 7 7 8 8 8 8 7 8 14 27 45 62 79 92 98 101 105 104 100 99 99 96 95 99 101 100 101 101 100 102 104 104 102 101 103 103 102 101 102 103 101 101 102
2 2 2 2 2 3 3 3 3 3 3 4 4 3 4 4 4 5 5 6 7 7 7 7 6 6 7 8 7 7 7 7 7 7 7 8 8 8 8 8 11 18 30 46 61 73 85 95 98 98 101 100 96 96 99 99 99 101 102 101 104 105 104 103 104 105 105 104 103 104 104 101 100 103
2 2 2 2 3 3 3 3 3 3 3 4 4 4 4 4 4 4 5 5 6 7 7 7 7 6 6 7 8 8 7 7 7 7 7 7 7 8 8 9 9 9 11 19 29 41 54 66 76 85 92 95 96 100 102 100 100 100 99 100 103 105 104 104 103 103 103 104 104 103 103 102 101 103
2 2 3 3 2 3 3 3 3 3 3 4 4 4 4 4 4 4 5 5 5 6 7 7 7 7 7 6 7 7 8 8 8 7 7 7 7 8 8 8 9 9 9 9 12 17 25 34 46 59 70 80 91 97 99 102 104 103 101 100 100 99 100 99 98 98 100 102 102 101 102 103 104 103
3 3 3 3 3 3 3 3 3 3 3 3 4 4 4 4 4 4 4 5 5 5 6 7 7 7 7 7 7 7 7 7 8 8 7 7 7 7 8 8 8 9 9 10 10 10 11 14 20 30 44 62 79 88 90 94 95 92 92 94 94 91 90 88 89 90 91 92 95 97 98 99 101 102
3 3 3 3 3 3 3 3 3 3 3 3 3 4 4 4 4 4 4 5 5 5 5 6 6 7 7 7 7 7 7 7 7 8 8 8 8 7 7 8 8 8 8 9 9 10 10 10 11 13 19 31 47 57 64 72 77 77 79 85 89 92 94 93 92 92 91 90 91 93 92 93 96 99
3 3 3 3 3 3 3 3 3 3 3 3 3 4 4 4 4 4 4 4 5 5 5 5 6 6 7 7 8 8 7 7 7 7 8 8 8 8 8 7 8 8 8 9 9 9 10 10 11 11 11 13 17 22 29 41 56 69 77 80 82 87 92 94 94 97 98 96 95 95 94 94 95 96
3 3 3 3 4 3 3 3 3 3 3 3 3 3 4 4 4 4 4 5 5 5 5 5 5 6 6 6 7 8 8 8 7 7 7 7 7 8 8 8 8 8 8 9 9 9 9 10 10 10 11 11 11 12 13 17 26 38 49 57 62 70 79 86 92 96 98 98 98 98 97 95 95 96
3 3 3 3 4 4 3 3 3 3 3 3 3 4 3 4 4 4 4 4 4 5 5 5 5 6 6 6 6 7 8 8 9 8 8 8 7 7 8 8 8 9 9 9 9 9 9 9 9 9 10 10 11 11 12 12 13 15 19 24 29 37 47 58 70 79 86 91 96 99 100 99 97 96
3 3 3 4 4 4 4 4 3 4 4 3 3 4 3 4 4 4 4 4 4 4 5 5 5 5 6 6 6 7 7 7 8 8 9 9 8 8 8 8 8 8 8 9 9 9 9 9 9 9 9 10 10 10 11 12 13 13 13 13 14 15 18 22 28 36 44 52 62 71 79 84 86 88
4 3 3 3 3 3 4 4 3 4 4 4 4 4 4 4 4 4 4 4 4 4 5 5 5 5 5 5 6 6 6 7 7 8 8 9 9 9 9 8 8 8 8 8 9 9 9 9 9 9 9 9 10 10 10 11 11 12 12 13 13 13 13 13 14 15 16 19 23 27 33 38 42 45
Wind_Speed
53 53 55 58 61 63 65 66 69 74 78 83 89 94 99 102 104 107 108 107 106 104 100 98 98 97 96 95 94 93 93 96 104 112 116 119 117 115 113 109 106 104 100 96 94 92 93 92 88 83 80 78 78 77 74 74 73 73 76 77 76 76 74 72 70 66 63 62 63 64 63 60 58 60
53 53 53 55 58 61 63 65 67 71 75 79 84 90 95 99 102 104 106 106 105 103 100 99 99 99 97 96 95 95 94 94 99 109 116 120 119 119 118 113 108 107 102 98 98 96 94 93 90 85 81 80 80 79 77 77 76 75 77 79 81 80 77 75 73 70 67 65 64 63 62 60 58 59
52 53 52 53 56 59 61 63 65 68 72 76 81 86 91 96 99 102 104 104 104 102 100 99 99 99 98 97 96 96 95 94 96 105 115 121 121 122 124 120 112 109 105 101 101 101 98 94 91 88 84 82 83 83 82 81 80 77 76 79 83 82 79 77 76 73 70 68 67 64 62 61 59 58
50 53 53 52 54 57 59 61 63 66 69 73 78 82 87 92 97 100 101 102 103 101 99 99 99 99 99 98 97 96 95 95 95 102 114 122 124 125 128 126 119 113 109 104 104 105 103 99 95 91 87 85 86 86 86 85 84 83 81 81 83 83 80 80 79 75 72 71 71 69 67 64 60 56
48 51 53 51 52 55 57 59 61 64 67 70 75 79 84 88 94 98 100 101 102 101 98 98 99 100 100 98 97 96 95 94 94 98 110 122 127 128 131 131 127 119 112 108 106 107 108 105 102 97 91 88 88 89 89 88 86 87 87 85 85 83 82 83 81 77 74 74 74 73 71 68 64 59
48 49 51 51 51 53 55 57 60 63 65 68 72 76 81 85 91 95 98 99 101 100 98 98 99 100 100 99 97 96 94 94 94 95 103 116 126 131 134 135 132 125 117 112 109 108 110 109 106 103 97 91 90 91 91 90 88 88 89 88 87 86 85 86 84 78 75 75 75 74 72 70 68 66
48 47 49 50 51 52 54 57 59 61 64 66 69 73 78 83 88 92 96 98 100 100 98 98 99 100 100 99 97 97 95 93 93 93 96 105 118 128 134 137 135 129 122 116 112 111 112 111 109 107 103 96 93 93 93 92 91 90 91 90 89 88 87 88 86 80 76 75 75 75 73 71 70 69
46 46 47 48 50 51 53 56 58 60 63 65 67 71 75 80 85 89 94 97 98 99 98 98 100 101 100 100 98 97 96 93 92 91 92 97 106 117 126 134 138 133 125 120 117 114 114 113 111 110 108 103 98 95 94 93 93 92 92 92 91 90 88 88 86 81 78 76 75 75 74 72 71 70
43 44 45 47 50 52 53 54 56 59 62 64 66 69 73 78 83 87 91 94 97 98 98 98 100 101 101 100 99 97 96 93 91 90 91 94 100 108 116 126 136 137 130 124 120 116 114 114 113 112 112 110 106 101 96 94 94 94 94 94 93 92 89 88 86 83 81 78 76 76 76 74 71 70
41 42 43 45 48 51 51 52 55 58 61 63 65 68 70 75 81 85 89 93 95 97 97 98 100 102 102 101 100 98 96 93 91 90 91 94 98 105 111 118 128 135 133 127 122 118 115 114 114 114 115 114 112 107 102 98 96 95 97 97 96 94 92 91 89 87 85 82 79 78 79 77 73 70
38 40 41 43 46 48 50 51 54 57 60 62 64 67 69 73 78 83 87 91 94 96 97 99 101 102 103 103 101 99 97 94 92 90 91 94 98 104 110 115 122 129 132 130 125 120 117 115 115 116 116 115 114 111 107 103 99 98 99 99 98 96 95 95 92 88 87 85 82 81 80 79 75 71
36 38 40 41 43 45 48 51 53 55 58 60 63 66 68 71 76 81 86 90 93 96 97 99 101 103 104 104 102 100 98 95 93 91 91 94 98 103 110 116 120 125 129 130 127 123 119 116 115 116 116 115 113 111 108 106 103 101 100 101 101 100 99 96 92 89 87 86 86 84 82 80 77 73
34 37 38 38 39 42 45 49 51 53 56 59 61 65 67 69 73 78 84 88 92 95 97 99 102 104 105 106 104 101 99 96 94 93 93 94 98 103 109 116 121 124 127 129 128 126 122 118 117 117 117 114 112 111 108 105 103 101 100 101 103 104 102 97 93 90 88 87 87 86 84 81 78 76
32 35 37 37 37 40 43 46 49 50 53 56 59 63 66 68 71 76 81 86 90 94 97 99 102 105 106 107 106 103 100 98 96 95 94 95 98 102 107 113 119 123 126 127 128 128 126 122 118 117 117 115 113 110 107 103 101 99 99 101 103 104 104 100 96 93 90 88 88 88 86 84 81 80
30 33 36 37 37 39 41 43 46 48 51 55 58 61 65 68 70 73 77 83 88 93 96 99 102 105 107 108 107 105 102 100 98 96 95 96 98 100 104 109 115 119 122 125 126 128 128 127 123 120 118 115 111 107 105 102 101 98 97 100 102 104 104 102 98 95 92 90 90 90 90 88 85 82
29 31 34 36 37 38 39 41 45 49 52 56 58 60 63 66 69 71 75 81 86 91 95 99 101 105 108 109 109 107 105 102 100 98 97 97 98 99 102 107 112 116 119 121 122 122 123 125 125 123 120 115 110 106 105 103 101 99 97 100 102 103 103 101 98 96 94 93 93 93 93 92 88 85
27 29 31 34 36 38 40 41 45 50 53 55 57 59 62 65 68 71 75 79 83 88 93 97 101 105 108 110 110 109 107 105 102 100 99 98 99 100 102 105 110 114 117 119 119 118 118 119 119 118 117 114 110 108 107 104 102 100 99 100 102 104 103 102 100 99 97 96 96 95 94 92 91 89
25 27 29 32 35 39 42 44 47 50 52 54 56 59 61 64 68 71 74 77 81 87 92 97 101 104 108 110 112 111 109 107 105 103 101 100 101 102 103 105 108 112 115 117 117 117 116 115 114 113 113 112 111 110 109 106 104 102 102 102 103 104 104 104 103 102 100 98 97 95 95 94 94 92
23 25 28 31 35 38 42 46 49 51 52 53 56 58 60 63 66 69 72 75 78 84 90 96 100 104 107 110 112 113 111 110 108 106 104 103 103 103 104 105 107 109 112 114 116 116 115 115 114 114 113 112 111 111 110 108 106 104 104 103 103 103 104 105 105 105 104 101 99 97 97 96 95 94
22 24 27 31 34 37 41 45 48 50 51 52 55 57 60 62 64 68 71 74 77 81 87 93 98 103 106 110 112 114 113 112 110 108 106 105 105 105 106 106 108 110 112 113 115 116 116 115 116 116 115 113 111 110 110 108 107 106 105 104 104 104 104 105 106 107 106 105 103 101 99 98 97 95
21 23 26 29 33 36 38 42 46 48 49 50 53 56 59 61 63 66 69 73 76 79 83 89 95 100 105 109 112 114 114 114 112 110 108 107 107 106 107 108 109 111 113 114 115 116 117 117 117 117 117 116 113 111 110 109 108 108 107 106 106 106 107 107 108 108 108 107 106 103 101 100 98 97
19 22 24 28 31 34 36 39 43 46 47 49 51 54 57 60 62 65 68 71 74 77 80 85 91 97 103 108 112 114 115 115 114 112 111 110 109 108 108 109 110 111 113 115 116 117 118 119 119 119 119 118 116 114 113 112 111 110 110 109 108 108 109 109 110 110 110 109 107 106 103 101 100 97
18 20 23 26 29 32 35 38 40 43 45 48 50 53 56 59 61 64 66 69 73 76 79 83 88 94 100 105 110 113 116 116 116 115 114 112 111 110 109 110 110 111 112 114 115 117 119 120 120 120 120 120 119 118 116 115 114 112 112 112 112 111 111 111 111 111 111 110 108 106 104 103 100 97
16 19 22 24 27 30 33 36 39 41 44 47 50 52 54 57 60 62 64 67 71 75 78 82 86 91 96 102 107 111 115 117 117 117 116 115 113 112 112 111 111 112 113 114 114 116 118 120 121 121 121 121 121 121 120 119 118 116 115 114 113 113 113 112 111 110 109 109 108 106 104 102 100 97
15 17 20 23 26 29 32 35 37 39 42 46 49 52 54 56 58 60 63 66 69 73 77 81 84 88 92 98 104 109 113 117 119 119 118 117 116 115 113 112 112 113 114 115 115 115 116 118 120 121 121 121 121 121 121 121 121 120 119 117 116 115 115 113 110 108 107 106 105 105 104 102 100 99
14 16 18 21 24 27 30 33 36 38 41 44 48 51 53 55 56 59 62 65 68 71 75 79 82 85 88 93 99 105 109 114 117 120 120 119 118 117 116 115 114 114 115 116 115 116 116 117 118 119 120 121 121 121 121 121 121 121 121 120 119 118 117 116 113 110 108 107 105 105 105 105 104 103
14 15 16 19 22 25 29 32 35 37 40 43 46 49 52 54 55 57 60 64 66 69 73 77 81 83 86 89 94 100 106 110 115 119 121 121 121 120 119 118 116 116 116 116 115 115 116 117 118 118 119 120 120 121 121 120 120 120 119 119 119 118 118 117 116 113 112 110 109 108 108 108 107 105
14 14 15 18 20 24 27 30 33 36 38 41 44 47 50 52 54 56 59 62 65 67 70 74 78 81 85 88 91 96 102 107 112 117 121 123 123 122 122 121 120 119 118 117 116 115 115 116 117 118 119 119 119 120 120 120 120 119 118 118 117 117 116 116 115 114 113 111 110 109 109 109 108 107
14 14 15 16 19 22 25 28 31 34 37 40 42 45 48 50 52 55 58 61 63 66 68 71 74 78 81 85 89 93 98 103 109 113 118 122 124 125 124 123 123 122 121 120 118 117 116 116 117 118 119 120 120 120 121 121 121 121 120 119 118 117 116 115 114 113 113 112 111 111 111 111 111 110
14 14 14 15 17 20 23 26 29 32 35 38 41 43 46 48 51 53 56 59 62 65 67 70 72 75 78 82 86 89 93 98 104 109 114 118 122 125 126 126 125 125 124 123 122 120 119 119 118 118 119 119 121 122 123 123 122 122 121 120 119 118 117 116 115 115 114 114 113 113 113 114 114 113
14 14 14 15 16 18 21 24 27 30 33 36 39 42 44 47 49 51 54 57 60 63 66 68 71 73 76 79 83 87 90 94 98 103 108 113 118 122 126 128 128 127 127 126 125 124 123 122 121 120 120 120 120 122 123 124 125 124 124 123 122 120 119 118 117 117 117 117 117 117 117 117 116 115
15 14 13 14 16 17 19 22 25 28 31 34 36 39 42 44 47 49 51 54 57 60 63 66 69 71 73 76 79 83 87 90 94 97 102 107 113 117 122 126 129 130 130 129 128 127 127 126 125 124 123 122 122 122 123 124 125 126 127 127 127 126 125 123 122 121 121 121 121 121 121 120 120 119
16 14 13 13 15 16 18 21 23 26 29 31 34 37 40 42 45 47 49 52 54 57 61 64 66 69 71 74 76 79 83 86 89 93 97 101 106 111 116 121 126 129 130 131 131 131 130 129 129 128 126 125 125 124 124 123 123 125 126 128 129 130 130 130 129 129 128 127 127 126 126 125 125 125
17 15 14 13 13 15 17 19 21 24 26 29 32 34 37 40 43 45 47 50 52 55 58 61 63 66 69 71 74 76 79 82 84 88 92 96 100 104 109 115 120 124 127 130 132 133 133 133 132 131 130 129 128 127 126 125 124 125 125 126 127 128 130 132 133 133 133 133 132 132 131 131 130 130
19 16 14 13 13 14 15 18 20 22 25 27 29 32 35 38 40 43 46 48 50 53 56 58 61 64 66 69 71 73 76 78 80 83 87 90 94 97 102 107 113 118 122 126 129 131 133 134 134 134 132 131 130 129 128 127 127 126 126 127 127 127 128 129 130 132 132 133 133 133 133 132 131 130
20 18 15 14 13 13 14 16 18 21 23 25 27 30 32 35 38 41 44 46 49 51 54 56 58 61 63 66 69 71 73 75 77 79 82 85 88 92 96 100 106 111 115 120 123 126 129 132 134 135 135 134 132 131 130 130 130 130 129 129 129 129 129 130 130 130 130 131 131 131 130 130 129 129
21 19 16 15 13 13 13 14 17 19 21 23 25 28 30 33 36 39 42 44 47 49 52 54 56 58 61 64 66 68 70 72 74 76 78 80 83 86 90 94 99 103 108 112 116 120 123 126 129 131 133 133 134 134 134 133 133 132 132 132 132 132 132 132 132 131 131 131 130 130 130 129 129 129
22 20 17 16 14 13 12 13 15 17 19 22 24 26 28 31 33 36 39 42 45 47 49 51 54 56 58 60 63 66 68 70 72 73 75 77 79 81 84 88 92 96 100 104 108 112 116 119 122 125 128 129 131 133 135 136 136 136 135 135 135 134 134 134 134 133 133 133 132 132 132 131 132 132
24 21 19 17 15 14 13 12 13 15 17 20 22 24 27 29 31 34 37 40 43 45 47 49 51 53 55 58 60 62 65 67 70 71 73 75 76 78 80 82 85 88 92 96 100 104 107 111 114 118 121 126 129 131 133 135 135 136 136 136 135 135 134 134 134 134 134 134 134 134 134 134 134 134
24 23 20 18 16 15 13 12 12 14 15 18 20 22 25 27 29 32 34 37 40 43 45 47 49 51 53 55 57 59 62 64 67 69 71 73 74 75 76 78 80 83 85 88 92 95 99 103 106 109 113 118 123 126 129 130 131 131 132 133 134 134 135 135 135 134 135 134 134 135 134 134 135 135
25 24 22 20 18 16 14 13 12 13 14 16 18 20 22 25 27 30 32 34 37 39 42 45 47 49 51 53 55 57 59 61 63 66 68 70 72 73 74 75 77 78 80 82 85 88 91 95 98 101 104 108 112 116 119 122 126 129 130 131 132 133 134 135 135 135 136 136 135 135 135 135 135 135
27 25 23 21 19 18 16 14 13 13 13 14 16 18 20 23 25 27 30 32 34 36 39 41 44 46 48 50 52 54 56 58 60 62 64 67 69 71 72 74 75 76 77 79 81 83 85 88 91 93 96 100 103 105 108 112 117 121 125 127 129 130 132 134 135 136 136 137 136 136 136 136 135 135
29 26 24 22 21 19 18 16 14 14 13 13 14 16 18 20 23 25 27 30 32 34 36 38 41 43 45 47 49 52 54 56 58 59 61 63 65 67 69 71 73 74 76 77 79 80 82 84 85 87 89 92 94 96 99 102 106 110 114 118 121 123 126 128 131 133 135 136 136 137 137 137 137 137
31 28 26 23 22 20 19 17 16 15 14 14 14 14 16 18 20 23 25 27 30 32 34 36 38 40 42 45 47 49 51 53 55 57 58 60 61 63 64 67 69 71 73 75 77 79 80 81 82 83 83 85 87 89 91 94 97 101 104 107 110 112 114 117 119 122 125 127 129 131 133 134 135 136
32 30 27 25 23 21 19 18 17 16 15 15 14 14 15 16 18 20 23 25 27 30 32 34 36 38 40 42 44 46 48 51 52 54 56 57 58 59 61 63 64 67 69 71 73 75 77 79 80 80 81 82 83 84 86 88 91 93 95 98 101 103 105 106 108 111 113 115 117 119 122 123 125 127
Wind_Direction
248 244 242 240 239 238 237 235 232 230 229 228 227 227 227 227 227 227 228 228 229 229 227 226 226 224 223 222 222 222 222 220 219 218 219 219 219 219 217 215 216 218 219 221 222 224 227 229 231 231 231 232 234 235 237 238 237 235 234 236 237 238 241 244 247 250 250 248 248 250 252 253 254 252
248 245 241 239 238 237 236 235 233 231 229 227 226 226 226 226 226 226 226 227 227 228 227 225 225 224 222 221 221 221 222 222 220 218 219 220 219 219 217 215 215 217 219 220 221 223 225 227 228 229 229 231 232 233 233 234 236 236 234 236 238 239 240 243 246 248 248 247 247 249 250 252 254 251
247 245 241 238 236 235 234 234 233 231 229 227 226 225 225 225 225 225 225 226 226 226 226 224 224 224 223 221 220 220 221 222 221 219 219 220 219 219 217 215 215 217 218 219 221 223 224 224 225 227 228 229 231 232 232 232 234 235 235 235 238 240 241 242 244 247 248 248 247 248 248 251 253 251
246 245 242 238 235 234 233 232 232 232 230 228 226 225 224 223 224 224 224 225 225 225 224 224 223 223 223 222 220 220 220 222 222 219 218 219 219 218 217 217 217 217 218 219 221 223 224 223 223 224 226 227 229 231 232 232 233 235 236 236 238 239 241 242 244 246 248 247 247 247 247 249 250 249
247 244 243 239 235 233 232 230 230 231 230 228 226 225 224 223 223 223 224 224 224 224 223 223 223 223 223 222 221 221 220 221 221 220 218 218 218 218 217 218 218 218 218 218 220 223 225 225 224 223 224 226 227 228 230 232 233 235 236 237 238 239 240 243 245 246 247 247 246 246 247 247 245 246
249 245 243 240 236 233 232 230 228 229 229 228 226 224 223 222 222 222 223 223 223 223 222 221 222 222 222 222 221 221 221 221 221 221 218 217 218 218 218 218 219 219 218 218 219 222 224 226 226 224 223 224 226 228 229 230 232 234 235 237 238 239 241 244 246 245 245 246 245 245 245 246 245 247
250 246 243 241 237 233 231 229 227 227 228 227 226 224 223 222 222 221 222 222 222 222 221 220 221 221 221 222 221 221 222 221 221 221 219 217 218 219 218 219 219 219 218 218 219 221 224 225 226 225 224 223 225 227 229 230 231 233 235 236 237 238 240 243 246 245 244 244 244 244 244 245 246 247
249 247 243 240 238 234 231 229 227 225 226 227 226 224 222 222 221 221 221 221 221 222 220 219 219 221 221 221 221 221 222 222 222 222 221 219 218 219 219 219 219 219 218 218 218 220 223 225 226 226 225 224 224 226 228 231 232 233 235 235 236 238 240 242 243 244 244 243 242 242 243 244 246 248
248 246 242 238 237 235 231 229 227 225 225 225 225 224 222 221 221 221 221 221 221 221 220 218 218 219 220 220 221 221 222 222 222 222 221 219 218 219 219 218 217 218 218 217 217 219 222 224 226 227 226 226 225 225 226 228 231 234 235 236 236 237 239 240 240 242 244 242 240 241 243 244 245 248
246 245 242 238 236 235 232 229 227 225 224 223 224 224 222 220 220 220 220 220 220 221 220 218 217 218 219 220 220 221 222 222 222 222 221 220 219 218 218 217 216 216 217 216 217 218 221 223 225 226 227 228 229 228 228 228 230 232 234 235 235 236 238 238 238 241 243 242 241 241 242 244 245 247
244 243 241 238 236 234 233 230 227 226 225 223 222 223 223 221 220 219 219 219 220 220 220 218 217 217 218 219 219 220 221 221 221 222 221 220 219 217 216 216 215 215 215 216 216 218 219 222 224 225 227 229 230 231 231 230 231 232 233 234 235 236 238 238 239 241 242 243 243 242 243 244 245 246
242 241 240 237 235 233 232 231 229 226 225 224 222 222 223 221 219 219 218 218 219 219 219 218 217 216 217 218 219 219 220 221 221 221 220 219 218 217 216 215 215 214 214 215 217 218 219 221 223 225 227 229 230 231 232 232 233 234 234 234 234 235 237 238 239 240 241 242 243 243 243 244 245 245
242 240 240 238 235 233 231 231 230 227 226 225 223 222 222 222 220 219 218 218 218 218 219 218 217 216 216 217 218 219 219 220 221 221 220 219 218 217 216 215 215 215 215 216 217 218 219 220 222 225 226 228 230 231 232 232 233 234 234 234 233 233 234 235 237 239 240 241 242 243 243 243 244 245
242 239 239 237 233 231 230 230 230 229 227 226 225 223 222 222 221 220 218 217 217 217 218 218 218 217 216 216 218 218 219 219 220 220 220 219 218 218 217 216 216 216 216 217 218 219 220 221 222 224 226 228 230 231 232 231 232 233 234 233 232 232 233 234 237 239 240 241 242 242 242 244 245 246
243 239 238 236 232 229 228 227 228 228 226 225 225 223 222 222 222 221 220 218 217 217 217 217 218 217 216 216 217 218 218 219 220 220 219 219 218 218 218 217 217 217 217 217 218 220 221 222 223 225 226 228 229 229 229 229 230 232 232 231 232 233 234 236 238 238 240 241 242 243 244 246 247 246
245 240 236 235 232 229 226 224 224 225 224 224 224 223 222 221 222 221 221 219 218 217 217 217 217 217 217 216 216 217 218 218 219 220 219 219 218 218 218 218 218 218 217 217 218 219 221 223 224 225 226 227 227 227 227 228 229 230 231 231 232 233 234 236 237 238 240 242 243 244 246 247 247 246
247 242 236 233 232 228 224 222 222 223 223 222 222 222 222 221 221 221 220 220 219 218 217 217 217 217 217 217 216 217 217 218 218 219 219 219 219 218 218 218 218 218 218 218 218 219 220 222 224 224 224 223 224 225 226 227 228 230 231 231 232 233 234 235 237 238 240 241 242 244 245 245 245 246
249 243 237 232 230 227 224 221 221 222 222 221 221 222 221 220 220 220 220 220 219 218 217 217 217 218 218 217 217 217 217 217 218 218 219 219 219 218 218 219 219 218 219 219 219 219 219 220 220 221 221 222 223 225 226 227 229 230 231 232 233 234 235 236 237 238 239 240 241 242 243 244 245 248
250 244 238 232 228 227 225 223 222 222 222 221 220 220 220 220 220 220 220 220 219 218 218 217 217 218 218 218 218 217 217 217 218 218 218 219 219 219 219 219 219 219 219 219 219 219 219 218 218 219 221 222 224 225 227 228 230 231 231 232 233 235 236 237 238 238 238 239 240 241 243 244 246 249
252 245 239 234 230 228 226 226 225 225 223 221 220 220 220 220 220 220 220 220 220 219 219 218 217 217 218 219 219 219 218 218 218 219 219 219 219 219 219 219 219 219 219 219 219 219 220 219 219 219 220 222 223 225 226 227 228 230 231 232 234 236 237 238 238 239 239 240 241 242 244 245 247 250
254 247 240 236 233 230 228 227 227 228 226 223 222 221 220 220 220 219 220 220 220 220 220 219 218 217 218 219 219 220 219 219 218 219 219 219 219 219 219 219 219 220 220 220 220 220 220 221 220 220 221 222 223 224 226 227 228 229 230 232 234 236 237 238 239 239 240 240 241 242 244 246 249 251
255 248 242 238 235 232 229 227 227 228 227 225 223 222 221 220 220 219 219 220 220 221 221 220 220 219 218 219 220 220 220 220 219 219 220 220 220 220 220 220 220 220 220 221 221 221 222 222 222 222 223 223 223 224 226 227 228 230 231 232 233 235 236 237 238 239 239 240 241 242 244 246 248 250
255 249 244 240 236 234 231 228 227 227 227 225 224 223 223 222 221 220 219 219 219 220 220 220 220 220 219 219 220 220 221 221 221 220 220 221 221 221 221 221 221 221 221 222 222 222 223 223 224 224 224 224 225 225 226 227 229 230 231 232 233 235 236 237 238 239 239 240 241 243 245 247 248 249
258 251 245 241 237 234 232 230 227 226 225 225 224 223 223 223 222 221 220 219 219 220 220 220 221 220 220 220 220 221 221 222 222 221 221 221 222 222 222 222 222 222 222 223 223 223 223 224 225 225 226 226 227 227 228 229 229 230 231 232 233 234 235 237 238 239 240 241 243 244 246 247 248 247
264 253 247 241 238 235 233 231 229 226 225 224 224 223 223 223 223 222 221 220 220 220 220 220 221 221 221 220 220 221 221 222 222 223 222 222 222 223 223 223 223 223 223 224 224 224 224 225 226 226 227 228 228 229 229 230 231 232 232 232 233 234 235 236 238 239 240 242 243 245 246 246 246 246
272 259 250 244 239 236 233 231 230 228 225 224 225 224 224 223 223 223 222 221 220 220 220 221 221 222 221 221 221 221 221 222 223 223 224 224 223 223 224 224 224 224 224 225 225 225 225 226 226 227 227 228 229 230 231 231 232 233 234 234 235 235 236 237 239 240 241 242 243 244 245 245 245 245
279 266 255 247 242 238 235 233 231 229 227 226 226 225 225 224 223 222 223 222 222 221 221 221 221 222 222 222 222 222 222 222 223 223 224 225 225 224 225 225 225 225 226 226 226 226 226 226 227 227 228 229 229 230 231 232 233 234 235 235 236 236 237 238 239 240 241 242 242 243 244 245 246 246
287 272 260 251 245 240 237 235 233 230 228 227 226 226 226 225 224 223 223 223 223 223 222 222 222 222 222 222 222 222 222 222 223 223 224 225 225 226 226 226 226 226 227 227 227 227 227 227 228 228 229 229 230 230 231 232 233 234 235 236 236 237 238 239 239 240 240 241 241 242 243 244 245 247
294 281 268 257 250 244 240 237 235 233 230 229 227 227 227 226 225 224 223 223 223 223 224 224 224 223 223 222 222 222 222 223 223 223 224 225 226 226 227 227 227 227 227 228 228 228 228 228 229 229 229 230 230 231 232 232 233 234 235 236 237 237 238 238 239 239 240 240 240 241 242 243 244 245
303 290 277 265 256 249 244 241 238 236 233 231 229 228 227 227 226 226 225 224 224 223 224 224 224 224 224 224 224 223 223 223 223 223 224 224 225 226 227 228 228 228 229 229 229 229 229 229 229 230 230 230 231 231 232 232 233 234 235 236 236 237 237 238 238 239 239 240 240 240 241 242 243 244
313 299 285 273 263 254 249 244 241 238 236 234 232 231 229 229 228 227 226 226 226 225 225 224 225 225 225 225 224 224 224 224 224 224 224 225 225 226 227 228 229 229 230 230 230 230 230 230 230 230 230 231 231 231 232 232 233 233 234 235 236 236 237 237 238 238 239 239 239 240 241 242 243 244
324 310 295 280 269 260 253 248 243 241 238 236 234 233 232 231 230 229 228 227 227 227 226 226 225 225 225 226 226 226 225 225 225 225 225 226 226 226 226 227 228 229 230 231 231 231 231 231 231 231 231 231 231 232 232 232 233 233 234 235 235 236 237 238 238 238 239 239 240 240 241 242 243 244
331 321 306 290 276 266 258 252 247 243 241 238 236 234 233 232 232 230 229 229 229 228 228 227 227 227 226 226 226 227 227 227 226 226 226 226 227 227 227 227 228 229 230 231 232 232 233 233 233 233 233 232 232 233 233 233 233 234 234 235 235 236 237 238 238 239 240 240 241 241 242 243 245 246
335 327 317 302 285 272 263 256 251 246 243 241 238 236 234 232 232 232 231 230 229 229 229 229 228 228 228 227 227 227 228 228 228 227 227 227 228 228 228 228 229 229 230 230 231 232 233 234 235 235 234 234 234 234 234 234 234 234 235 235 236 236 237 237 238 239 240 241 242 243 243 245 246 247
338 332 324 312 296 280 268 260 255 250 246 243 240 238 236 234 232 232 232 231 231 230 230 230 229 229 229 229 229 229 229 229 229 229 228 228 229 229 229 229 230 230 231 231 232 232 233 234 235 236 236 236 236 236 236 236 235 235 236 236 236 237 237 238 238 239 240 241 242 243 244 245 246 247
341 336 330 320 307 291 276 265 258 253 249 246 242 240 238 236 234 233 232 232 232 232 232 231 231 230 230 229 229 229 229 229 230 230 230 230 229 229 229 230 230 231 232 232 233 233 234 234 235 236 236 237 237 238 238 238 237 237 237 237 237 238 238 238 239 239 240 241 241 242 243 244 245 246
343 339 334 327 316 302 286 272 262 257 252 249 245 242 239 237 236 234 233 232 233 233 233 233 232 232 231 230 230 230 230 230 230 230 230 230 230 230 230 230 231 232 232 233 234 234 235 235 236 236 237 237 238 238 239 239 239 239 239 239 239 239 239 240 240 240 241 241 242 242 243 244 245 245
345 342 338 332 324 312 297 282 269 260 255 251 248 245 242 240 238 236 235 234 233 233 233 234 234 234 233 232 232 231 230 230 230 231 231 231 231 231 231 231 231 232 232 233 234 235 236 236 237 237 238 238 239 239 239 240 240 240 241 241 241 241 241 241 242 242 242 242 243 243 244 244 245 246
345 343 340 335 329 320 308 293 278 266 259 254 250 248 245 243 241 239 237 236 235 234 234 234 234 234 234 234 234 233 232 231 231 231 231 231 231 231 231 231 232 232 232 233 234 235 236 237 237 238 238 239 239 240 240 240 241 241 242 242 243 243 243 244 244 244 244 244 245 245 245 245 246 247
347 345 342 338 333 326 318 305 290 276 265 258 253 249 247 246 244 242 240 238 237 236 236 235 235 235 235 235 235 235 234 233 232 232 232 232 232 232 231 231 232 232 233 233 234 235 236 237 237 238 238 239 239 240 241 241 242 243 244 244 244 245 245 246 246 246 247 247 247 247 247 248 248 249
350 347 344 341 337 331 325 315 302 288 274 265 258 252 249 247 246 244 243 242 240 238 237 237 236 236 235 235 235 236 236 235 234 233 233 232 233 233 232 232 232 232 233 233 234 234 234 235 236 237 238 238 239 240 241 241 242 243 244 245 245 246 246 247 247 248 248 248 249 249 250 250 250 250
352 349 346 342 339 335 329 322 312 301 287 274 264 257 252 249 247 246 245 244 243 241 240 238 238 237 237 236 236 236 237 237 236 235 235 234 233 233 233 233 233 232 233 233 234 234 234 234 234 235 236 237 238 239 240 240 241 242 243 244 245 246 246 247 248 248 249 249 250 250 251 251 252 252
353 351 348 344 340 336 332 326 319 310 298 286 273 263 257 252 249 247 246 245 244 243 241 240 239 238 238 237 237 237 237 237 237 237 237 236 236 235 234 234 234 233 233 233 234 234 234 234 234 234 234 235 237 237 238 238 239 240 241 242 243 244 244 245 246 247 248 249 250 250 251 252 253 253
353 351 349 346 341 337 333 328 323 316 307 296 285 273 264 257 252 249 247 246 245 244 243 241 240 239 238 238 237 237 237 237 237 238 238 238 237 237 237 236 236 235 235 234 234 235 235 235 235 235 234 235 235 236 236 236 237 238 239 240 241 242 242 243 244 245 246 247 248 249 250 251 252 252
353 351 349 347 343 339 334 329 324 318 311 303 294 284 274 265 258 253 249 247 246 245 244 243 241 240 238 238 237 237 237 237 237 238 238 238 238 238 238 238 237 237 237 236 236 236 236 236 236 236 236 235 235 235 235 235 236 236 237 238 240 241 241 241 242 242 243 244 245 246 247 248 249 250